SXS7UD EDDS-LTAU

Flight info

Callsign SXS7UD
Flight time 3h 19m
Altitude 23000
Route DKB9B/25 DKB N869 AMOSA/N0459F350 N869 ANELA Z715 ERETO Z650 VEMUT DCT BUDEX DCT SASAL DCT SOGMO DCT BABIT DCT ESIRI DCT ETIDA M19 ADORU UT302 VATCA UL333 ASMAP UT341 BAG UG8 MARTI/N0449F270 W76 SARIZ
Aircraft B738/M-SDE2E3FGHIRWXY/LB1

Departure

Time 2026-05-03 20:42
Airport Stuttgart Airport (EDDS)

Arrival

Time 2026-05-04 00:01
Airport Kayseri Erkilet International Airport (LTAU)
Time Latitude Longitude Altitude Speed Heading
2026-05-03 20:15 48.68754 9.19460 1308 ft 0 kts 163°
2026-05-03 20:30 48.68752 9.19461 1308 ft 0 kts 163°
2026-05-03 20:30 48.68750 9.19462 1308 ft 0 kts 163°
2026-05-03 20:31 48.68745 9.19464 1308 ft 1 kts 163°
2026-05-03 20:31 48.68728 9.19472 1307 ft 4 kts 163°
2026-05-03 20:31 48.68696 9.19490 1306 ft 5 kts 139°
2026-05-03 20:31 48.68714 9.19537 1305 ft 6 kts 75°
2026-05-03 20:32 48.68725 9.19607 1303 ft 8 kts 76°
2026-05-03 20:32 48.68735 9.19694 1300 ft 9 kts 82°
2026-05-03 20:32 48.68746 9.19784 1297 ft 0 kts 74°
2026-05-03 20:33 48.68746 9.19785 1297 ft 1 kts 75°
2026-05-03 20:33 48.68749 9.19803 1297 ft 4 kts 74°
2026-05-03 20:33 48.68764 9.19873 1295 ft 10 kts 64°
2026-05-03 20:34 48.68807 9.19960 1294 ft 10 kts 51°
2026-05-03 20:34 48.68842 9.20052 1293 ft 10 kts 74°
2026-05-03 20:34 48.68861 9.20152 1291 ft 10 kts 73°
2026-05-03 20:34 48.68882 9.20257 1288 ft 11 kts 74°
2026-05-03 20:35 48.68903 9.20371 1288 ft 12 kts 74°
2026-05-03 20:35 48.68926 9.20495 1282 ft 13 kts 74°
2026-05-03 20:35 48.68950 9.20623 1280 ft 13 kts 73°
2026-05-03 20:35 48.68975 9.20751 1276 ft 13 kts 73°
2026-05-03 20:36 48.68999 9.20879 1273 ft 13 kts 74°
2026-05-03 20:36 48.69025 9.21019 1269 ft 15 kts 74°
2026-05-03 20:36 48.69057 9.21187 1269 ft 18 kts 74°
2026-05-03 20:36 48.69095 9.21383 1265 ft 21 kts 75°
2026-05-03 20:37 48.69135 9.21603 1265 ft 22 kts 74°
2026-05-03 20:37 48.69164 9.21752 1262 ft 22 kts 73°
2026-05-03 20:37 48.69206 9.21969 1252 ft 21 kts 73°
2026-05-03 20:37 48.69259 9.22249 1243 ft 20 kts 74°
2026-05-03 20:38 48.69284 9.22385 1241 ft 20 kts 74°
2026-05-03 20:38 48.69322 9.22581 1233 ft 19 kts 74°
2026-05-03 20:38 48.69359 9.22774 1229 ft 19 kts 73°
2026-05-03 20:38 48.69393 9.22961 1225 ft 18 kts 74°
2026-05-03 20:39 48.69427 9.23141 1222 ft 18 kts 74°
2026-05-03 20:39 48.69464 9.23328 1218 ft 21 kts 73°
2026-05-03 20:39 48.69508 9.23564 1213 ft 25 kts 74°
2026-05-03 20:39 48.69555 9.23812 1208 ft 24 kts 73°
2026-05-03 20:40 48.69596 9.24023 1203 ft 19 kts 74°
2026-05-03 20:40 48.69597 9.24185 1197 ft 16 kts 114°
2026-05-03 20:40 48.69515 9.24311 1190 ft 19 kts 165°
2026-05-03 20:40 48.69414 9.24352 1189 ft 10 kts 165°
2026-05-03 20:41 48.69390 9.24320 1190 ft 5 kts 253°
2026-05-03 20:41 48.69389 9.24312 1190 ft 0 kts 255°
2026-05-03 20:41 48.69356 9.24140 1193 ft 48 kts 254°
2026-05-03 20:42 48.69202 9.23323 1210 ft 111 kts 253°
2026-05-03 20:42 48.68938 9.21944 1242 ft 162 kts 255°
2026-05-03 20:42 48.68621 9.20159 1635 ft 179 kts 257°
2026-05-03 20:42 48.68304 9.18363 2487 ft 175 kts 254°
2026-05-03 20:43 48.67956 9.16600 3207 ft 180 kts 254°
2026-05-03 20:43 48.67568 9.14670 3480 ft 202 kts 253°
2026-05-03 20:43 48.67134 9.12535 3733 ft 220 kts 253°
2026-05-03 20:43 48.66985 9.10208 4204 ft 229 kts 279°
2026-05-03 20:44 48.67688 9.08005 4831 ft 241 kts 307°
2026-05-03 20:44 48.69071 9.06454 5378 ft 261 kts 333°
2026-05-03 20:44 48.70877 9.05579 5815 ft 279 kts 340°
2026-05-03 20:44 48.72757 9.04713 6473 ft 285 kts 340°
2026-05-03 20:45 48.74696 9.03943 7120 ft 293 kts 353°
2026-05-03 20:45 48.76730 9.04360 7742 ft 301 kts 23°
2026-05-03 20:45 48.78429 9.06196 8378 ft 303 kts 52°
2026-05-03 20:45 48.79707 9.08754 9053 ft 305 kts 58°
2026-05-03 20:46 48.80920 9.11414 9752 ft 308 kts 59°
2026-05-03 20:46 48.82124 9.14087 10332 ft 315 kts 59°
2026-05-03 20:46 48.83407 9.16923 10529 ft 337 kts 58°
2026-05-03 20:46 48.84788 9.19947 10705 ft 358 kts 58°
2026-05-03 20:47 48.86257 9.23135 10851 ft 378 kts 57°
2026-05-03 20:47 48.87810 9.26488 11004 ft 397 kts 57°
2026-05-03 20:47 48.89427 9.29980 11264 ft 410 kts 57°
2026-05-03 20:47 48.91074 9.33559 11783 ft 415 kts 58°
2026-05-03 20:48 48.92419 9.37432 12377 ft 415 kts 69°
2026-05-03 20:48 48.93477 9.41540 12863 ft 420 kts 71°
2026-05-03 20:48 48.94487 9.45678 13378 ft 425 kts 72°
2026-05-03 20:48 48.95520 9.49916 13939 ft 428 kts 71°
2026-05-03 20:49 48.96572 9.54155 14473 ft 430 kts 71°
2026-05-03 20:49 48.97650 9.58426 15002 ft 432 kts 70°
2026-05-03 20:49 48.98746 9.62714 15508 ft 436 kts 70°
2026-05-03 20:49 48.99855 9.67029 15998 ft 439 kts 70°
2026-05-03 20:50 49.00976 9.71383 16487 ft 442 kts 70°
2026-05-03 20:50 49.02097 9.75741 17103 ft 441 kts 70°
2026-05-03 20:50 49.03213 9.80089 17654 ft 442 kts 69°
2026-05-03 20:50 49.04337 9.84478 18053 ft 446 kts 69°
2026-05-03 20:51 49.05453 9.88845 18432 ft 450 kts 69°
2026-05-03 20:51 49.06589 9.93304 18814 ft 453 kts 70°
2026-05-03 20:51 49.07734 9.97808 19212 ft 456 kts 70°
2026-05-03 20:51 49.08882 10.02328 19608 ft 458 kts 70°
2026-05-03 20:52 49.10034 10.06878 19930 ft 462 kts 70°
2026-05-03 20:52 49.11199 10.11486 20260 ft 466 kts 70°
2026-05-03 20:52 49.12368 10.16113 20634 ft 469 kts 70°
2026-05-03 20:52 49.13541 10.20762 21000 ft 471 kts 69°
2026-05-03 20:53 49.15075 10.25194 21311 ft 474 kts 52°
2026-05-03 20:53 49.17353 10.28821 21718 ft 474 kts 43°
2026-05-03 20:53 49.19743 10.32308 22063 ft 477 kts 44°
2026-05-03 20:53 49.22102 10.35909 22343 ft 480 kts 45°
2026-05-03 20:54 49.24444 10.39581 22655 ft 483 kts 45°
2026-05-03 20:54 49.29222 10.46907 23280 ft 488 kts 44°
2026-05-03 20:54 49.31648 10.50581 23576 ft 490 kts 44°
2026-05-03 20:55 49.34073 10.54275 23833 ft 492 kts 45°
2026-05-03 20:55 49.36458 10.57986 24095 ft 494 kts 46°
2026-05-03 20:55 49.38820 10.61810 24352 ft 495 kts 46°
2026-05-03 20:55 49.41191 10.65678 24605 ft 497 kts 46°
2026-05-03 20:56 49.43588 10.69545 24845 ft 499 kts 46°
2026-05-03 20:56 49.46013 10.73376 25079 ft 501 kts 45°
2026-05-03 20:56 49.48444 10.77204 25321 ft 502 kts 46°
2026-05-03 20:56 49.50897 10.81086 25591 ft 502 kts 45°
2026-05-03 20:57 49.53293 10.84874 26047 ft 498 kts 45°
2026-05-03 20:57 49.55742 10.88731 26457 ft 496 kts 45°
2026-05-03 20:57 49.58124 10.92482 26740 ft 497 kts 45°
2026-05-03 20:57 49.60546 10.96303 26993 ft 498 kts 45°
2026-05-03 20:58 49.62969 11.00133 27305 ft 498 kts 45°
2026-05-03 20:58 49.65382 11.03954 27663 ft 496 kts 46°
2026-05-03 20:58 49.67780 11.07774 28016 ft 495 kts 46°
2026-05-03 20:58 49.70163 11.11611 28335 ft 495 kts 46°
2026-05-03 20:59 49.72544 11.15457 28646 ft 495 kts 46°
2026-05-03 20:59 49.74927 11.19307 28971 ft 495 kts 46°
2026-05-03 20:59 49.77352 11.23075 29314 ft 494 kts 41°
2026-05-03 20:59 49.80058 11.26337 29614 ft 493 kts 34°
2026-05-03 21:00 49.82898 11.29329 29957 ft 493 kts 34°
2026-05-03 21:00 49.84758 11.31344 30131 ft 493 kts 35°
2026-05-03 21:00 49.88286 11.35886 30405 ft 494 kts 51°
2026-05-03 21:00 49.90062 11.40408 30645 ft 491 kts 69°
2026-05-03 21:01 49.90993 11.45465 30983 ft 485 kts 83°
2026-05-03 21:01 49.91182 11.50650 31364 ft 478 kts 97°
2026-05-03 21:01 49.90552 11.55670 31626 ft 473 kts 109°
2026-05-03 21:01 49.89574 11.60542 31835 ft 474 kts 110°
2026-05-03 21:02 49.88607 11.65430 32051 ft 475 kts 109°
2026-05-03 21:02 49.87824 11.70404 32293 ft 476 kts 101°
2026-05-03 21:02 49.87380 11.75413 32600 ft 475 kts 99°
2026-05-03 21:02 49.86995 11.80492 32899 ft 473 kts 99°
2026-05-03 21:03 49.86602 11.85559 33153 ft 473 kts 99°
2026-05-03 21:03 49.86181 11.90607 33395 ft 471 kts 99°
2026-05-03 21:03 49.85737 11.95638 33712 ft 469 kts 99°
2026-05-03 21:03 49.85285 12.00630 33960 ft 468 kts 100°
2026-05-03 21:04 49.84825 12.05626 34149 ft 468 kts 100°
2026-05-03 21:04 49.84362 12.10631 34324 ft 468 kts 100°
2026-05-03 21:04 49.83899 12.15621 34505 ft 468 kts 100°
2026-05-03 21:04 49.83438 12.20603 34690 ft 468 kts 100°
2026-05-03 21:05 49.82973 12.25591 34869 ft 467 kts 100°
2026-05-03 21:05 49.82516 12.30584 34970 ft 468 kts 100°
2026-05-03 21:05 49.81585 12.40583 34963 ft 468 kts 103°
2026-05-03 21:06 49.79429 12.49878 34971 ft 459 kts 121°
2026-05-03 21:06 49.75895 12.58038 34961 ft 454 kts 127°
2026-05-03 21:07 49.72253 12.66002 34960 ft 453 kts 127°
2026-05-03 21:07 49.68633 12.73983 34946 ft 455 kts 127°
2026-05-03 21:08 49.64987 12.82073 34968 ft 461 kts 127°
2026-05-03 21:08 49.61299 12.90253 34953 ft 466 kts 127°
2026-05-03 21:09 49.57608 12.98420 34944 ft 468 kts 127°
2026-05-03 21:09 49.53875 13.06650 34940 ft 469 kts 127°
2026-05-03 21:10 49.50136 13.14867 34953 ft 468 kts 127°
2026-05-03 21:10 49.46396 13.23060 34954 ft 467 kts 127°
2026-05-03 21:11 49.42663 13.31212 34970 ft 465 kts 127°
2026-05-03 21:11 49.38961 13.39272 34958 ft 464 kts 127°
2026-05-03 21:12 49.35238 13.47352 34961 ft 463 kts 127°
2026-05-03 21:12 49.31519 13.55401 34958 ft 461 kts 127°
2026-05-03 21:13 49.27804 13.63415 34969 ft 461 kts 127°
2026-05-03 21:13 49.24089 13.71407 34968 ft 460 kts 127°
2026-05-03 21:14 49.20386 13.79348 34973 ft 460 kts 127°
2026-05-03 21:14 49.16653 13.87329 34964 ft 461 kts 127°
2026-05-03 21:15 49.12916 13.95296 34974 ft 461 kts 127°
2026-05-03 21:15 49.09166 14.03270 34962 ft 462 kts 127°
2026-05-03 21:16 49.05410 14.11232 34974 ft 463 kts 127°
2026-05-03 21:16 49.01635 14.19210 34971 ft 464 kts 127°
2026-05-03 21:17 48.98489 14.25844 34962 ft 465 kts 127°
2026-05-03 21:17 48.93926 14.34926 34958 ft 465 kts 136°
2026-05-03 21:18 48.89111 14.41462 34971 ft 464 kts 140°
2026-05-03 21:18 48.84214 14.47858 34970 ft 464 kts 140°
2026-05-03 21:19 48.79334 14.54291 34969 ft 465 kts 140°
2026-05-03 21:19 48.74460 14.60762 34966 ft 465 kts 139°
2026-05-03 21:20 48.69586 14.67236 34983 ft 466 kts 139°
2026-05-03 21:20 48.64707 14.73700 34980 ft 467 kts 139°
2026-05-03 21:21 48.59813 14.80163 34981 ft 467 kts 140°
2026-05-03 21:21 48.54941 14.86580 34978 ft 467 kts 140°
2026-05-03 21:22 48.50032 14.93026 34987 ft 468 kts 139°
2026-05-03 21:22 48.45118 14.99463 34987 ft 469 kts 139°
2026-05-03 21:23 48.41019 15.04819 34998 ft 469 kts 139°
2026-05-03 21:23 48.36082 15.11255 34991 ft 470 kts 139°
2026-05-03 21:24 48.31126 15.17697 35002 ft 470 kts 139°
2026-05-03 21:24 48.26165 15.24129 34989 ft 471 kts 139°
2026-05-03 21:25 48.21234 15.30506 35013 ft 471 kts 139°
2026-05-03 21:25 48.16261 15.36920 35011 ft 471 kts 139°
2026-05-03 21:26 48.11286 15.43319 35021 ft 472 kts 139°
2026-05-03 21:26 48.06303 15.49712 35035 ft 472 kts 139°
2026-05-03 21:27 48.01313 15.56097 35024 ft 473 kts 139°
2026-05-03 21:27 47.96291 15.62505 35042 ft 477 kts 139°
2026-05-03 21:28 47.91226 15.68952 35049 ft 478 kts 139°
2026-05-03 21:28 47.86188 15.75347 35059 ft 478 kts 139°
2026-05-03 21:29 47.81117 15.81766 35076 ft 478 kts 139°
2026-05-03 21:29 47.76054 15.88159 35076 ft 476 kts 139°
2026-05-03 21:30 47.71005 15.94518 35067 ft 475 kts 139°
2026-05-03 21:30 47.65960 16.00853 35077 ft 474 kts 139°
2026-05-03 21:31 47.60924 16.07162 35073 ft 473 kts 139°
2026-05-03 21:31 47.55901 16.13438 35086 ft 472 kts 139°
2026-05-03 21:32 47.50882 16.19694 35079 ft 471 kts 139°
2026-05-03 21:32 47.45896 16.25892 35081 ft 471 kts 139°
2026-05-03 21:33 47.40883 16.32108 35080 ft 471 kts 139°
2026-05-03 21:33 47.35859 16.38324 35089 ft 471 kts 139°
2026-05-03 21:34 47.30816 16.44546 35084 ft 472 kts 139°
2026-05-03 21:34 47.26175 16.51346 35097 ft 471 kts 127°
2026-05-03 21:35 47.22104 16.58902 35090 ft 472 kts 127°
2026-05-03 21:35 47.18022 16.66481 35090 ft 473 kts 127°
2026-05-03 21:36 47.13897 16.74024 35104 ft 474 kts 127°
2026-05-03 21:36 47.09746 16.81550 35094 ft 475 kts 128°
2026-05-03 21:37 47.05583 16.89068 35092 ft 475 kts 128°
2026-05-03 21:37 47.01410 16.96588 35093 ft 475 kts 128°
2026-05-03 21:38 46.97264 17.04041 35116 ft 475 kts 127°
2026-05-03 21:38 46.93085 17.11534 35101 ft 475 kts 127°
2026-05-03 21:39 46.88905 17.19009 35112 ft 474 kts 127°
2026-05-03 21:39 46.84729 17.26455 35126 ft 474 kts 128°
2026-05-03 21:40 46.80549 17.33888 35122 ft 474 kts 128°
2026-05-03 21:40 46.76360 17.41319 35126 ft 473 kts 127°
2026-05-03 21:41 46.72172 17.48727 35125 ft 473 kts 127°
2026-05-03 21:41 46.67980 17.56122 35121 ft 473 kts 127°
2026-05-03 21:42 46.63807 17.63470 35118 ft 474 kts 127°
2026-05-03 21:42 46.59616 17.70875 35128 ft 474 kts 126°
2026-05-03 21:43 46.55565 17.78435 35123 ft 474 kts 124°
2026-05-03 21:43 46.51543 17.86041 35126 ft 474 kts 124°
2026-05-03 21:44 46.47504 17.93614 35128 ft 475 kts 125°
2026-05-03 21:44 46.43442 18.01172 35130 ft 476 kts 124°
2026-05-03 21:45 46.39360 18.08736 35131 ft 476 kts 124°
2026-05-03 21:45 46.35275 18.16281 35139 ft 476 kts 125°
2026-05-03 21:46 46.31211 18.23772 35133 ft 476 kts 125°
2026-05-03 21:46 46.27119 18.31296 35159 ft 476 kts 124°
2026-05-03 21:47 46.23019 18.38814 35154 ft 476 kts 124°
2026-05-03 21:47 46.18913 18.46323 35150 ft 477 kts 124°
2026-05-03 21:48 46.14798 18.53826 35153 ft 477 kts 124°
2026-05-03 21:48 46.10679 18.61319 35179 ft 476 kts 124°
2026-05-03 21:49 46.06556 18.68798 35163 ft 476 kts 124°
2026-05-03 21:49 46.02432 18.76261 35136 ft 476 kts 124°
2026-05-03 21:50 45.98334 18.83657 35153 ft 475 kts 124°
2026-05-03 21:50 45.94213 18.91078 35190 ft 475 kts 124°
2026-05-03 21:51 45.90000 18.98395 35165 ft 476 kts 127°
2026-05-03 21:51 45.85615 19.05520 35158 ft 476 kts 128°
2026-05-03 21:52 45.81223 19.12613 35161 ft 475 kts 127°
2026-05-03 21:52 45.76857 19.19717 35193 ft 474 kts 127°
2026-05-03 21:53 45.72507 19.26813 35161 ft 474 kts 127°
2026-05-03 21:53 45.68163 19.33889 35165 ft 473 kts 127°
2026-05-03 21:54 45.63819 19.40946 35165 ft 472 kts 127°
2026-05-03 21:54 45.59504 19.47935 35171 ft 471 kts 127°
2026-05-03 21:55 45.55161 19.54953 35172 ft 471 kts 127°
2026-05-03 21:55 45.50812 19.61961 35172 ft 471 kts 127°
2026-05-03 21:56 45.46460 19.68956 35171 ft 472 kts 127°
2026-05-03 21:56 45.42103 19.75943 35177 ft 472 kts 128°
2026-05-03 21:57 45.37723 19.82949 35178 ft 474 kts 127°
2026-05-03 21:57 45.33355 19.89917 35177 ft 474 kts 127°
2026-05-03 21:58 45.28958 19.96913 35176 ft 475 kts 127°
2026-05-03 21:58 45.24555 20.03902 35178 ft 475 kts 127°
2026-05-03 21:59 45.20154 20.10870 35192 ft 474 kts 127°
2026-05-03 21:59 45.15744 20.17834 35186 ft 474 kts 127°
2026-05-03 22:00 45.11331 20.24787 35186 ft 474 kts 127°
2026-05-03 22:00 45.06923 20.31713 35187 ft 473 kts 127°
2026-05-03 22:01 45.02513 20.38626 35180 ft 473 kts 127°
2026-05-03 22:01 44.98099 20.45528 35181 ft 473 kts 127°
2026-05-03 22:02 44.93685 20.52412 35182 ft 472 kts 127°
2026-05-03 22:02 44.89306 20.59226 35180 ft 472 kts 127°
2026-05-03 22:03 44.84888 20.66082 35176 ft 472 kts 127°
2026-05-03 22:03 44.80475 20.72917 35174 ft 471 kts 127°
2026-05-03 22:04 44.76057 20.79741 35168 ft 471 kts 127°
2026-05-03 22:04 44.71667 20.86503 35168 ft 470 kts 127°
2026-05-03 22:05 44.67254 20.93288 35174 ft 471 kts 127°
2026-05-03 22:05 44.62829 21.00073 35169 ft 470 kts 127°
2026-05-03 22:06 44.58397 21.06852 35166 ft 470 kts 127°
2026-05-03 22:06 44.53966 21.13614 35171 ft 470 kts 127°
2026-05-03 22:07 44.49527 21.20372 35176 ft 471 kts 127°
2026-05-03 22:07 44.45082 21.27123 35179 ft 472 kts 127°
2026-05-03 22:08 44.41379 21.32735 35176 ft 472 kts 127°
2026-05-03 22:08 44.36190 21.40581 35177 ft 473 kts 127°
2026-05-03 22:09 44.32439 21.46239 35183 ft 474 kts 127°
2026-05-03 22:10 44.25783 21.56328 35185 ft 472 kts 127°
2026-05-03 22:10 44.21340 21.63070 35189 ft 472 kts 127°
2026-05-03 22:11 44.16891 21.69800 35221 ft 473 kts 127°
2026-05-03 22:11 44.12420 21.76546 35194 ft 474 kts 127°
2026-05-03 22:12 44.07942 21.83282 35193 ft 473 kts 127°
2026-05-03 22:12 44.03468 21.89996 35189 ft 473 kts 127°
2026-05-03 22:13 43.99018 21.96660 35202 ft 473 kts 127°
2026-05-03 22:13 43.94532 22.03362 35191 ft 473 kts 127°
2026-05-03 22:14 43.90042 22.10052 35192 ft 473 kts 127°
2026-05-03 22:14 43.85556 22.16723 35192 ft 473 kts 127°
2026-05-03 22:15 43.81064 22.23386 35182 ft 473 kts 127°
2026-05-03 22:15 43.76571 22.30037 35207 ft 473 kts 127°
2026-05-03 22:16 43.72100 22.36641 35190 ft 473 kts 127°
2026-05-03 22:16 43.67733 22.43404 35201 ft 467 kts 118°
2026-05-03 22:17 43.64253 22.50924 35229 ft 464 kts 115°
2026-05-03 22:17 43.60856 22.58517 35234 ft 466 kts 115°
2026-05-03 22:18 43.57396 22.66080 35248 ft 467 kts 116°
2026-05-03 22:18 43.53888 22.73645 35292 ft 468 kts 116°
2026-05-03 22:19 43.50370 22.81201 35288 ft 469 kts 116°
2026-05-03 22:19 43.46850 22.88747 35281 ft 467 kts 116°
2026-05-03 22:20 43.43356 22.96226 35286 ft 465 kts 116°
2026-05-03 22:20 43.39849 23.03710 35343 ft 465 kts 116°
2026-05-03 22:21 43.36346 23.11169 35307 ft 464 kts 116°
2026-05-03 22:21 43.32843 23.18613 35308 ft 463 kts 116°
2026-05-03 22:22 43.29347 23.26026 35315 ft 463 kts 116°
2026-05-03 22:22 43.25845 23.33435 35329 ft 463 kts 117°
2026-05-03 22:23 43.22334 23.40845 35302 ft 463 kts 117°
2026-05-03 22:23 43.18817 23.48244 35298 ft 463 kts 117°
2026-05-03 22:24 43.15301 23.55626 35313 ft 463 kts 117°
2026-05-03 22:24 43.11787 23.62986 35323 ft 465 kts 117°
2026-05-03 22:25 43.08241 23.70394 35286 ft 464 kts 117°
2026-05-03 22:25 43.04704 23.77769 35288 ft 463 kts 117°
2026-05-03 22:26 43.01159 23.85127 35308 ft 463 kts 118°
2026-05-03 22:26 42.97606 23.92468 35312 ft 463 kts 118°
2026-05-03 22:27 42.94054 23.99793 35289 ft 462 kts 118°
2026-05-03 22:27 42.90498 24.07114 35291 ft 463 kts 118°
2026-05-03 22:28 42.86960 24.14384 35311 ft 463 kts 119°
2026-05-03 22:28 42.83516 24.21790 35294 ft 461 kts 115°
2026-05-03 22:29 42.80490 24.29467 35279 ft 459 kts 113°
2026-05-03 22:29 42.77526 24.37183 35274 ft 459 kts 114°
2026-05-03 22:30 42.74521 24.44872 35276 ft 460 kts 115°
2026-05-03 22:30 42.71484 24.52528 35276 ft 460 kts 115°
2026-05-03 22:31 42.68450 24.60130 35274 ft 460 kts 115°
2026-05-03 22:31 42.65393 24.67769 35271 ft 460 kts 115°
2026-05-03 22:32 42.62334 24.75398 35244 ft 460 kts 115°
2026-05-03 22:32 42.59273 24.83009 35224 ft 460 kts 115°
2026-05-03 22:33 42.56200 24.90635 35223 ft 460 kts 115°
2026-05-03 22:33 42.53116 24.98266 35205 ft 461 kts 116°
2026-05-03 22:34 42.50023 25.05898 35191 ft 461 kts 116°
2026-05-03 22:34 42.46945 25.13476 35195 ft 461 kts 116°
2026-05-03 22:35 42.43839 25.21100 35176 ft 462 kts 116°
2026-05-03 22:35 42.40728 25.28721 35170 ft 462 kts 116°
2026-05-03 22:36 42.37628 25.36291 35158 ft 462 kts 116°
2026-05-03 22:36 42.34509 25.43888 35155 ft 462 kts 116°
2026-05-03 22:37 42.31384 25.51481 35155 ft 462 kts 116°
2026-05-03 22:37 42.28256 25.59062 35138 ft 462 kts 117°
2026-05-03 22:38 42.25142 25.66588 35143 ft 461 kts 117°
2026-05-03 22:38 42.22013 25.74131 35141 ft 460 kts 117°
2026-05-03 22:39 42.18879 25.81669 35140 ft 460 kts 117°
2026-05-03 22:39 42.15735 25.89209 35140 ft 460 kts 117°
2026-05-03 22:40 42.12607 25.96694 35143 ft 461 kts 117°
2026-05-03 22:40 42.09446 26.04238 35128 ft 462 kts 117°
2026-05-03 22:41 42.06277 26.11782 35134 ft 463 kts 118°
2026-05-03 22:41 42.03115 26.19289 35131 ft 464 kts 118°
2026-05-03 22:42 41.99919 26.26859 35127 ft 465 kts 118°
2026-05-03 22:42 41.96727 26.34400 35130 ft 466 kts 119°
2026-05-03 22:43 41.93522 26.41952 35123 ft 464 kts 119°
2026-05-03 22:43 41.90331 26.49456 35111 ft 461 kts 119°
2026-05-03 22:44 41.87141 26.56935 35097 ft 459 kts 119°
2026-05-03 22:44 41.84105 26.64454 35113 ft 456 kts 117°
2026-05-03 22:45 41.81191 26.71951 35091 ft 454 kts 117°
2026-05-03 22:45 41.78257 26.79441 35084 ft 451 kts 117°
2026-05-03 22:46 41.75338 26.86815 35087 ft 449 kts 118°
2026-05-03 22:46 41.72403 26.94193 35082 ft 447 kts 118°
2026-05-03 22:47 41.69479 27.01525 35067 ft 445 kts 118°
2026-05-03 22:47 41.66575 27.08792 35067 ft 444 kts 118°
2026-05-03 22:48 41.63659 27.16072 35058 ft 443 kts 118°
2026-05-03 22:48 41.60743 27.23337 35051 ft 443 kts 118°
2026-05-03 22:49 41.57820 27.30600 35054 ft 444 kts 118°
2026-05-03 22:49 41.54884 27.37874 35047 ft 446 kts 118°
2026-05-03 22:50 41.51953 27.45118 35042 ft 447 kts 118°
2026-05-03 22:50 41.48987 27.52436 35043 ft 449 kts 118°
2026-05-03 22:51 41.46006 27.59772 35033 ft 450 kts 118°
2026-05-03 22:51 41.43023 27.67097 35032 ft 450 kts 118°
2026-05-03 22:52 41.40032 27.74423 35016 ft 450 kts 118°
2026-05-03 22:52 41.37035 27.81744 35021 ft 450 kts 118°
2026-05-03 22:53 41.34041 27.89042 35020 ft 449 kts 118°
2026-05-03 22:53 41.31039 27.96340 35021 ft 449 kts 118°
2026-05-03 22:54 41.28546 28.02388 35019 ft 449 kts 118°
2026-05-03 22:54 41.25057 28.10832 35017 ft 448 kts 118°
2026-05-03 22:55 41.22049 28.18091 35015 ft 448 kts 118°
2026-05-03 22:55 41.19546 28.24122 35003 ft 448 kts 118°
2026-05-03 22:56 41.16531 28.31369 35005 ft 448 kts 118°
2026-05-03 22:56 41.13510 28.38613 34998 ft 448 kts 118°
2026-05-03 22:57 41.10531 28.45876 34997 ft 448 kts 117°
2026-05-03 22:57 41.07574 28.53148 34982 ft 447 kts 118°
2026-05-03 22:58 41.04615 28.60391 34973 ft 447 kts 118°
2026-05-03 22:58 41.01652 28.67616 34966 ft 447 kts 118°
2026-05-03 22:59 40.98677 28.74847 34968 ft 448 kts 118°
2026-05-03 22:59 40.96601 28.82528 34973 ft 448 kts 101°
2026-05-03 23:00 40.96233 28.90749 34971 ft 450 kts 88°
2026-05-03 23:00 40.96511 28.99024 34980 ft 450 kts 88°
2026-05-03 23:01 40.96775 29.07313 34979 ft 450 kts 89°
2026-05-03 23:01 40.96995 29.15569 34966 ft 449 kts 90°
2026-05-03 23:02 40.97195 29.23830 34958 ft 448 kts 89°
2026-05-03 23:02 40.97385 29.32023 34960 ft 448 kts 89°
2026-05-03 23:03 40.97572 29.40264 34965 ft 448 kts 90°
2026-05-03 23:03 40.97755 29.48515 34970 ft 448 kts 90°
2026-05-03 23:04 40.97933 29.56749 34978 ft 448 kts 90°
2026-05-03 23:04 40.97622 29.64936 34968 ft 444 kts 102°
2026-05-03 23:05 40.95674 29.72658 34980 ft 442 kts 114°
2026-05-03 23:05 40.93178 29.80045 34976 ft 441 kts 114°
2026-05-03 23:06 40.90741 29.87485 34980 ft 438 kts 114°
2026-05-03 23:06 40.88361 29.94788 34965 ft 430 kts 114°
2026-05-03 23:07 40.86002 30.02006 34960 ft 428 kts 114°
2026-05-03 23:07 40.83640 30.09211 34965 ft 429 kts 114°
2026-05-03 23:08 40.81248 30.16486 34965 ft 434 kts 114°
2026-05-03 23:08 40.78825 30.23839 34948 ft 438 kts 114°
2026-05-03 23:09 40.76384 30.31225 34938 ft 440 kts 114°
2026-05-03 23:09 40.73942 30.38598 34933 ft 440 kts 114°
2026-05-03 23:10 40.71492 30.45975 34922 ft 434 kts 114°
2026-05-03 23:10 40.69083 30.53207 34901 ft 428 kts 114°
2026-05-03 23:11 40.66698 30.60352 34908 ft 426 kts 114°
2026-05-03 23:11 40.64303 30.67511 34897 ft 429 kts 114°
2026-05-03 23:12 40.61584 30.74501 34878 ft 429 kts 122°
2026-05-03 23:12 40.58309 30.81110 34889 ft 432 kts 123°
2026-05-03 23:13 40.55031 30.87701 34881 ft 433 kts 122°
2026-05-03 23:13 40.51762 30.94361 34874 ft 434 kts 122°
2026-05-03 23:14 40.48479 31.01073 34878 ft 439 kts 122°
2026-05-03 23:14 40.45179 31.07808 34866 ft 442 kts 122°
2026-05-03 23:15 40.41836 31.14615 34859 ft 443 kts 122°
2026-05-03 23:15 40.38666 31.21563 34840 ft 443 kts 114°
2026-05-03 23:16 40.36866 31.29203 34858 ft 443 kts 102°
2026-05-03 23:16 40.35633 31.37146 34832 ft 443 kts 102°
2026-05-03 23:17 40.34383 31.45066 34810 ft 443 kts 102°
2026-05-03 23:17 40.33096 31.52989 34807 ft 443 kts 103°
2026-05-03 23:18 40.31805 31.60842 34800 ft 443 kts 103°
2026-05-03 23:18 40.30501 31.68742 34794 ft 443 kts 103°
2026-05-03 23:19 40.29192 31.76643 34774 ft 443 kts 103°
2026-05-03 23:19 40.27885 31.84505 34765 ft 443 kts 103°
2026-05-03 23:20 40.26550 31.92407 34753 ft 444 kts 105°
2026-05-03 23:20 40.24922 32.00208 34753 ft 443 kts 107°
2026-05-03 23:21 40.23195 32.07915 34739 ft 444 kts 107°
2026-05-03 23:21 40.21472 32.15681 34745 ft 444 kts 107°
2026-05-03 23:22 40.18912 32.27348 34731 ft 444 kts 107°
2026-05-03 23:22 40.17213 32.35087 34721 ft 444 kts 108°
2026-05-03 23:23 40.15498 32.42863 34724 ft 445 kts 107°
2026-05-03 23:23 40.13774 32.50652 34718 ft 445 kts 107°
2026-05-03 23:24 40.12058 32.58377 34721 ft 444 kts 108°
2026-05-03 23:24 40.10330 32.66129 34710 ft 443 kts 108°
2026-05-03 23:25 40.08614 32.73808 34717 ft 442 kts 108°
2026-05-03 23:25 40.06868 32.81512 34706 ft 442 kts 110°
2026-05-03 23:26 40.04731 32.89031 34712 ft 441 kts 112°
2026-05-03 23:26 40.02486 32.96479 34709 ft 440 kts 113°
2026-05-03 23:27 40.00269 33.03896 34712 ft 440 kts 112°
2026-05-03 23:27 39.98058 33.11355 34715 ft 441 kts 112°
2026-05-03 23:28 39.95846 33.18818 34719 ft 441 kts 112°
2026-05-03 23:28 39.93629 33.26282 34729 ft 441 kts 113°
2026-05-03 23:29 39.91418 33.33700 34740 ft 442 kts 113°
2026-05-03 23:29 39.89181 33.41185 34741 ft 443 kts 113°
2026-05-03 23:30 39.86937 33.48673 34739 ft 444 kts 113°
2026-05-03 23:30 39.84683 33.56174 34740 ft 445 kts 113°
2026-05-03 23:31 39.82566 33.63707 34737 ft 446 kts 108°
2026-05-03 23:31 39.81023 33.71541 34742 ft 447 kts 106°
2026-05-03 23:32 39.79497 33.79389 34731 ft 447 kts 107°
2026-05-03 23:32 39.77905 33.87222 34740 ft 448 kts 108°
2026-05-03 23:33 39.75969 33.94858 34737 ft 447 kts 112°
2026-05-03 23:33 39.73776 34.02437 34738 ft 447 kts 113°
2026-05-03 23:34 39.71581 34.10021 34731 ft 448 kts 113°
2026-05-03 23:34 39.69421 34.17567 34733 ft 448 kts 113°
2026-05-03 23:35 39.67256 34.25162 34732 ft 448 kts 113°
2026-05-03 23:35 39.65085 34.32764 34720 ft 448 kts 114°
2026-05-03 23:36 39.62915 34.40335 34727 ft 448 kts 114°
2026-05-03 23:36 39.60740 34.47902 34727 ft 447 kts 114°
2026-05-03 23:37 39.59662 34.51641 34604 ft 449 kts 114°
2026-05-03 23:37 39.58561 34.55453 34095 ft 450 kts 114°
2026-05-03 23:37 39.57468 34.59239 33414 ft 447 kts 114°
2026-05-03 23:37 39.56375 34.63017 32603 ft 447 kts 114°
2026-05-03 23:38 39.55287 34.66772 31905 ft 445 kts 114°
2026-05-03 23:38 39.54199 34.70520 31184 ft 444 kts 114°
2026-05-03 23:38 39.53110 34.74267 30453 ft 443 kts 114°
2026-05-03 23:38 39.52021 34.78009 29681 ft 444 kts 113°
2026-05-03 23:39 39.50929 34.81754 28765 ft 443 kts 113°
2026-05-03 23:39 39.49841 34.85484 27918 ft 442 kts 113°
2026-05-03 23:39 39.48754 34.89206 27060 ft 441 kts 114°
2026-05-03 23:39 39.47682 34.92868 26190 ft 440 kts 114°
2026-05-03 23:40 39.46594 34.96578 25367 ft 439 kts 113°
2026-05-03 23:40 39.45517 35.00252 24736 ft 432 kts 113°
2026-05-03 23:40 39.44455 35.03868 24104 ft 427 kts 113°
2026-05-03 23:40 39.43760 35.06233 23694 ft 424 kts 113°
2026-05-03 23:41 39.42715 35.09782 23026 ft 419 kts 113°
2026-05-03 23:41 39.41666 35.13276 22317 ft 412 kts 116°
2026-05-03 23:41 39.40190 35.16381 21721 ft 400 kts 133°
2026-05-03 23:41 39.38206 35.18836 21136 ft 392 kts 143°
2026-05-03 23:42 39.35932 35.20720 20544 ft 386 kts 155°
2026-05-03 23:42 39.33496 35.22031 19972 ft 382 kts 158°
2026-05-03 23:42 39.31036 35.23311 19369 ft 380 kts 158°
2026-05-03 23:42 39.28594 35.24600 18778 ft 378 kts 157°
2026-05-03 23:43 39.26140 35.25918 18207 ft 386 kts 157°
2026-05-03 23:43 39.23640 35.27269 17519 ft 388 kts 158°
2026-05-03 23:43 39.21166 35.28612 16905 ft 382 kts 159°
2026-05-03 23:43 39.18726 35.29943 16289 ft 378 kts 159°
2026-05-03 23:44 39.16327 35.31252 15700 ft 373 kts 159°
2026-05-03 23:44 39.13949 35.32548 15105 ft 368 kts 159°
2026-05-03 23:44 39.11601 35.33826 14537 ft 365 kts 159°
2026-05-03 23:44 39.09266 35.35095 13957 ft 362 kts 159°
2026-05-03 23:45 39.06990 35.36351 13380 ft 360 kts 156°
2026-05-03 23:45 39.04950 35.38239 12747 ft 364 kts 136°
2026-05-03 23:45 39.03468 35.40848 12460 ft 362 kts 121°
2026-05-03 23:45 39.02555 35.43890 12130 ft 368 kts 111°
2026-05-03 23:46 39.01821 35.47016 11702 ft 358 kts 111°
2026-05-03 23:46 39.01140 35.50009 11379 ft 340 kts 111°
2026-05-03 23:46 39.00484 35.52848 11130 ft 322 kts 111°
2026-05-03 23:46 38.99847 35.55545 10904 ft 308 kts 111°
2026-05-03 23:47 38.99231 35.58121 10692 ft 296 kts 112°
2026-05-03 23:47 38.98623 35.60635 10482 ft 295 kts 112°
2026-05-03 23:47 38.98008 35.63159 10265 ft 294 kts 111°
2026-05-03 23:47 38.97417 35.65596 10195 ft 285 kts 112°
2026-05-03 23:48 38.96834 35.67997 10024 ft 278 kts 111°
2026-05-03 23:48 38.96260 35.70360 9836 ft 277 kts 112°
2026-05-03 23:48 38.95684 35.72719 9609 ft 277 kts 112°
2026-05-03 23:48 38.94868 35.74906 9335 ft 268 kts 136°
2026-05-03 23:49 38.93415 35.76239 9174 ft 250 kts 164°
2026-05-03 23:49 38.91740 35.76594 8901 ft 242 kts 185°
2026-05-03 23:49 38.90089 35.76056 8283 ft 251 kts 206°
2026-05-03 23:49 38.88662 35.74702 7702 ft 263 kts 226°
2026-05-03 23:50 38.87567 35.72775 7018 ft 270 kts 230°
2026-05-03 23:50 38.86602 35.70674 6295 ft 280 kts 247°
2026-05-03 23:50 38.86064 35.68346 6300 ft 265 kts 251°
2026-05-03 23:50 38.85616 35.66108 6273 ft 253 kts 252°
2026-05-03 23:51 38.85205 35.63985 6247 ft 242 kts 252°
2026-05-03 23:51 38.84816 35.61939 6207 ft 230 kts 252°
2026-05-03 23:51 38.84451 35.59962 6205 ft 225 kts 252°
2026-05-03 23:51 38.84098 35.58037 6226 ft 215 kts 252°
2026-05-03 23:52 38.83766 35.56212 6192 ft 205 kts 252°
2026-05-03 23:52 38.83451 35.54454 6188 ft 202 kts 252°
2026-05-03 23:52 38.83141 35.52718 6201 ft 202 kts 252°
2026-05-03 23:52 38.82828 35.50955 6194 ft 202 kts 252°
2026-05-03 23:53 38.82505 35.49189 6201 ft 205 kts 253°
2026-05-03 23:53 38.82124 35.47413 6205 ft 208 kts 252°
2026-05-03 23:53 38.81730 35.45635 6219 ft 207 kts 252°
2026-05-03 23:53 38.81336 35.43867 6227 ft 203 kts 252°
2026-05-03 23:54 38.80953 35.42137 6230 ft 201 kts 252°
2026-05-03 23:54 38.80578 35.40453 6228 ft 199 kts 252°
2026-05-03 23:54 38.80194 35.38725 6234 ft 203 kts 252°
2026-05-03 23:54 38.79810 35.36982 6211 ft 204 kts 252°
2026-05-03 23:55 38.79424 35.35235 6232 ft 203 kts 252°
2026-05-03 23:55 38.79039 35.33489 6218 ft 204 kts 252°
2026-05-03 23:55 38.78655 35.31749 6235 ft 203 kts 252°
2026-05-03 23:55 38.78267 35.29994 6195 ft 205 kts 252°
2026-05-03 23:56 38.77867 35.28206 5931 ft 210 kts 252°
2026-05-03 23:56 38.77457 35.26425 5654 ft 205 kts 248°
2026-05-03 23:56 38.76668 35.25020 5429 ft 193 kts 211°
2026-05-03 23:56 38.75454 35.24611 5390 ft 179 kts 172°
2026-05-03 23:57 38.74295 35.25157 5410 ft 180 kts 155°
2026-05-03 23:57 38.73231 35.26012 5384 ft 183 kts 131°
2026-05-03 23:57 38.72858 35.27515 5404 ft 185 kts 82°
2026-05-03 23:57 38.73183 35.29140 5404 ft 191 kts 77°
2026-05-03 23:58 38.73493 35.30796 5396 ft 190 kts 78°
2026-05-03 23:58 38.73798 35.32430 5387 ft 186 kts 78°
2026-05-03 23:58 38.74100 35.34031 5379 ft 184 kts 78°
2026-05-03 23:58 38.74400 35.35622 5368 ft 180 kts 78°
2026-05-03 23:59 38.74687 35.37137 5169 ft 174 kts 78°
2026-05-03 23:59 38.74960 35.38584 4999 ft 159 kts 78°
2026-05-03 23:59 38.75213 35.39923 4734 ft 153 kts 77°
2026-05-03 23:59 38.75462 35.41241 4538 ft 156 kts 76°
2026-05-04 00:00 38.75722 35.42614 4320 ft 158 kts 75°
2026-05-04 00:00 38.75984 35.43972 4156 ft 156 kts 75°
2026-05-04 00:00 38.76242 35.45334 3914 ft 156 kts 75°
2026-05-04 00:00 38.76500 35.46688 3710 ft 158 kts 75°
2026-05-04 00:01 38.76763 35.48067 3471 ft 156 kts 75°
2026-05-04 00:01 38.76991 35.49244 3465 ft 108 kts 78°
2026-05-04 00:01 38.77116 35.49927 3461 ft 59 kts 76°
2026-05-04 00:01 38.77204 35.50382 3462 ft 37 kts 77°
2026-05-04 00:02 38.77237 35.50535 3464 ft 8 kts 54°
2026-05-04 00:02 38.77289 35.50555 3465 ft 8 kts 355°
2026-05-04 00:02 38.77341 35.50540 3466 ft 8 kts 341°